BAGIKAN:



“Harusnya saya yang mencari nafkah untuk istri dan anak, tapi setelah sakit lumpuh saya hanya bisa berbaring di tempat tidur.”

Pak Sapri, adalah seorang petugas kebersiahan di SD Hang Tuah. Ayah satu anak ini sudah 3 bulan menderita sakit yang belum tau penyebabnya. Pak Sapri tak bisa lagi bekerja seperti biasa karena penyakit yang dideritanya membuat ia lumpuh.


Awalnya sejak 20 tahun lalu pak Sapri sakit yang menyebabkan tangan kirinya sulit digerakan. Kemudian sekarang anggota tubuh yang lain pun sulit digerakan. Akibatnya, tubuhnya lumpuh dan Pak Sapri hanya bisa berbaring di tempat tidur.


Agar kebutuhan hidup tetap tercukupi, istrinya terpaksa menggantikan tugas beliau sebagai petugas kebersiahan dengan penghasilan per bulan hanya Rp. 600.000. Sementara ia harus membayar kontrakan setiap bulannya, biaya sekolah anak dan keperluan sehari-hari.

Di tengah sakit yang dideritanya ia ingin sekali bisa bekerja lagi. Namun apa daya, ia hanya bisa menggantungkan harapan pada istrinya yang kini menggantikan posisinya dalam mencari nafkah. Jangan biarkan Pak Sapri dan keluarga berjuang sendiri. Mari bantu ringankan bebannya dengan cara:

1. Klik Tombol "DONASI SEKARANG"

2. Masukan data diri dan nominal donasi

3. Pilih metode pembayaran ke no. rekening yang tertera

 

Terimakasih #OrangBaik!

Tanggal Donatur Nominal
2022-01-21 07:56:39 Widya Ningrum Rp 50.000,00
2022-01-21 10:14:11 Vania Rp 20.000,00
2022-01-21 11:33:02 Syasyi Rp 10.000,00
2022-01-26 09:07:07 Lita Rp 100.000,00
2022-02-06 04:38:10 Alfian Rp 200.000,00
2022-02-07 12:33:36 Rusmarini Dewi Rp 100.000,00
2022-02-11 06:06:11 Yuyun Yunita Rp 20.000,00
2022-02-14 15:03:08 Ani rohani Rp 20.000,00
2022-02-17 04:28:50 Yuyun Yunita Rp 30.000,00
2022-02-18 11:11:46 Hamba allah Rp 50.000,00
2022-03-09 05:49:14 Alfian Rp 100.000,00
2022-03-31 21:57:46 Fitri Rp 50.000,00
2022-04-01 06:39:11 Erlis Rp 10.000,00
2022-04-03 07:34:48 Silvi andriani Rp 10.000,00
2022-04-03 15:00:59 Yul Afnizar Rp 10.000,00
2022-04-04 05:41:41 Yessi Vadila Rp 20.000,00
2022-04-06 16:43:36 Titik Pujiasti Rp 100.000,00
2022-04-10 11:15:00 Riyanni hasmik Rp 10.000,00
2022-04-10 12:19:10 Candra Hanafia Rp 20.000,00
2022-04-10 15:09:55 Iffon Leliana Rp 200.000,00
2022-04-11 05:34:18 Isti Ilmiati Fujiati Rp 200.000,00
2022-04-11 12:52:50 Aulia Rp 50.000,00
2022-04-12 10:46:43 - Rp 100.000,00
2022-04-13 09:37:26 Hamba Allah Rp 5.000,00
2022-04-14 08:32:58 Hamba Allah Rp 5.000,00
2022-04-14 10:44:25 andi singarimbun Rp 100.000,00
2022-04-14 11:26:29 Shejaiva Rp 50.000,00
2022-04-15 16:49:01 Murniati Rp 100.000,00
2022-04-18 14:39:39 Rofifah Yuba Huwaida Rp 10.000,00
2022-04-20 05:52:47 Hari Fana Riki Ulfakh Sinaga Rp 10.000,00
2022-04-20 06:37:17 Riyanni hasmik Rp 10.000,00
2022-04-20 13:00:03 Budiman Azis Putra Rp 150.000,00
2022-04-20 13:01:27 SUHERMAN Rp 100.000,00
2022-04-21 05:19:20 Rouf Rp 200.000,00
2022-04-21 06:11:05 Riyanni hasmik Rp 10.000,00
2022-04-21 10:25:37 m muhlas Rp 400.000,00
2022-04-22 05:05:48 Fahmi Rahmatia Rp 50.000,00
2022-04-22 06:11:45 Riyanni hasmik Rp 10.000,00
2022-04-22 07:09:46 Miftah Rp 100.000,00
2022-04-22 21:58:34 Laras Rp 20.000,00
2022-04-23 09:31:31 Riyanni hasmik Rp 10.000,00
2022-04-24 05:34:58 Riyanni hasmik Rp 10.000,00
2022-04-24 11:29:58 Tilawatil Rp 50.000,00
2022-04-24 13:07:08 Arie Suwandani Rp 200.000,00
2022-04-24 17:54:34 Muhammad Rafa Rp 100.000,00
2022-04-25 02:50:41 Thaufiq Arsani Rp 200.000,00
2022-04-25 05:24:13 Hamba Allah Rp 25.000,00
2022-04-25 16:24:28 A.Jundi S Rp 30.000,00
2022-04-25 17:17:25 Maksuk Rp 100.000,00
2022-04-25 22:11:12 annisa hilya Rp 50.000,00
2022-04-26 00:40:38 Yuni Anggraeni Rp 50.000,00
2022-04-26 06:17:52 A. Ircham Rp 100.000,00
2022-04-26 14:08:57 Abu Rp 100.000,00
2022-04-26 16:26:44 ASEP DODI SUDRAJAT Rp 200.000,00
2022-04-26 16:46:16 Fauzi Amiruddin (Alm) Rp 200.000,00
2022-04-27 12:44:59 Oky Singgih Nugroho Rp 50.000,00
2022-04-27 12:50:54 Aiman Rp 200.000,00
2022-04-27 19:46:36 Muthia Rp 200.000,00
2022-04-29 01:36:07 Fitri haryani Rp 250.000,00
2022-04-29 03:35:14 Ilham Hadiana Rp 100.000,00
2022-04-29 07:51:26 Edy Santoso Rp 100.000,00
2022-04-29 08:22:58 Fakhri R Rp 300.000,00
2022-04-29 10:43:19 Ali Nurdin Rp 405.650,00
2022-04-29 11:03:23 Erbiyati Cahyaningtyas Rp 50.000,00
2022-04-29 14:34:59 Ramya Rachmawati Rp 200.000,00
2022-04-29 21:40:03 Muhammad Erwin Dalimunthe Rp 100.000,00
2022-04-30 10:59:11 Aidan Hisyam Al Fatih Rp 100.000,00
2022-05-01 05:40:21 Yessi Rp 20.000,00
2022-05-01 11:38:19 Aris Toharisman Rp 2.000.000,00
2022-05-01 13:36:56 Hairiah Rp 189.350,00
2022-05-01 16:38:38 Yeni Arianti ( Paliko ) Rp 50.000,00
2022-05-01 16:59:12 Sagita Mulia Sari Rp 1.000.000,00
2022-05-08 10:02:59 Andri Kurniawan Rp 130.000,00
2022-05-14 19:39:08 J Wahab Rp 100.000,00
2022-05-16 05:28:00 Hamba Allah Rp 10.000,00
2022-05-29 05:29:02 Ayu NP Rp 10.000,00
2022-05-30 05:48:38 Hamba Allah Rp 10.000,00
2022-05-31 05:57:38 Ayu NP Rp 10.000,00
2022-06-03 05:46:53 Hari Fana Riki Ulfakh Sinaga Rp 10.000,00
2022-06-04 05:48:55 Ayu NP Rp 10.000,00
2022-06-14 19:57:44 Almarhum M.Dasuki bin abdullah Rp 200.000,00
2022-06-16 05:42:53 Hamba Allah Rp 10.001,00
2022-06-17 05:22:33 Annie Kholila OP Rp 200.000,00
2022-07-08 10:32:31 hamba Allah Rp 50.000,00
2022-07-15 18:30:32 Woro Rp 100.000,00

Alhamdulillah,berkat donatur Teman Berbagi, Kami telah menyalurkan bantuan untuk kesembuhan Pak Sapri.

Alhamdulillah Pak Sapri telah Kembali pulih dan keadaan saat ini masih rutin berobat, namun Pak Sapri tidak hanya berbaring terus-terusan, ketika kondisi membaik beliau mencoba beraktifitas kembali seperti biasa dan bahkan kembali bekerja membersihkan sekolah bersama istrinya.

Ucap syukur dan kebahagiaan terpancar dari wajah Pak Sapri dan keluarga setelah menerima bantuan dari donatur teman berbagi. 

“Alhamdulillah saya bersyukur banget atas bantuannya, insyaAllah saya mau pakai buat berobat lagi karena masih harus rutin ke dokter setiap bulan”, Ungkap Pak Sapri sambal tersenyum.

Terima kasih atas doa, dukungan dan donasinya donatur Teman Berbagi. Semoga kebaikan yang telah disalurkan menjadi jalan keberkahan dan Ridha Allah SWT.